Location: Peebles
(55.6412°N, 3.1714°W)
Time: 22:16:16
(UTC+01:00)

CENTAUR R/B - Pass Details

Date: 24 January 2022
Orbit: 716 x 1471 km, 63.4° (Epoch: 08 May)

Event Time Altitude Azimuth Distance (km) Brightness Sun altitude
Rises 20:29:55 0° 288° (WNW) 3,786 6.7 -33.1°
Reaches altitude 10° 20:32:29 10° 294° (WNW) 2,939 5.8 -33.5°
Maximum altitude 20:39:23 49° 9° (N) 1,556 3.4 -34.4°
Enters shadow 20:39:25 49° 9° (N) 1,557 3.4 -34.4°
